TimeCST,TemperatureF,Dew PointF,Humidity,Sea Level PressureIn,VisibilityMPH,Wind Direction,Wind SpeedMPH,Gust SpeedMPH,PrecipitationIn,Events,Conditions,WindDirDegrees,DateUTC
12:53 AM,21.9,12.0,66,29.92,10.0,West,3.5,-,N/A,,Partly Cloudy,270,2013-12-21 06:53:00
1:53 AM,21.9,12.0,66,29.84,10.0,NNW,9.2,-,N/A,,Clear,330,2013-12-21 07:53:00
2:53 AM,21.9,12.0,66,29.85,10.0,NNW,6.9,-,N/A,,Clear,330,2013-12-21 08:53:00
3:53 AM,21.9,12.0,66,29.87,10.0,North,3.5,-,N/A,,Clear,350,2013-12-21 09:53:00
4:53 AM,21.0,12.0,68,29.85,10.0,NNW,5.8,-,N/A,,Clear,340,2013-12-21 10:53:00
5:53 AM,21.9,12.9,68,29.88,10.0,Calm,Calm,-,N/A,,Partly Cloudy,0,2013-12-21 11:53:00
6:53 AM,21.9,12.9,68,29.87,10.0,Calm,Calm,-,N/A,,Overcast,0,2013-12-21 12:53:00
7:53 AM,21.9,12.9,68,29.85,10.0,NNE,5.8,-,N/A,,Overcast,20,2013-12-21 13:53:00
8:53 AM,21.9,12.9,68,29.83,10.0,NNE,5.8,-,N/A,,Partly Cloudy,30,2013-12-21 14:53:00
9:23 AM,23.0,12.9,65,29.81,10.0,NE,4.6,-,N/A,,Mostly Cloudy,50,2013-12-21 15:23:00
9:53 AM,23.0,14.0,68,29.85,10.0,NNE,8.1,-,N/A,,Mostly Cloudy,30,2013-12-21 15:53:00
10:53 AM,24.1,14.0,65,29.85,10.0,NNE,8.1,-,N/A,,Overcast,30,2013-12-21 16:53:00
11:53 AM,25.0,15.1,66,29.82,10.0,NNE,8.1,-,N/A,,Overcast,30,2013-12-21 17:53:00
12:53 PM,26.1,16.0,66,29.78,10.0,NE,10.4,-,N/A,,Overcast,40,2013-12-21 18:53:00
1:53 PM,26.1,16.0,66,29.76,10.0,NE,9.2,-,N/A,,Overcast,40,2013-12-21 19:53:00
2:53 PM,26.1,18.0,71,29.74,7.0,NNE,11.5,-,0.00,,Overcast,30,2013-12-21 20:53:00
3:34 PM,25.0,18.0,75,29.68,2.0,NE,12.7,-,0.00,Snow,Light Snow,40,2013-12-21 21:34:00
3:41 PM,25.0,19.0,78,29.69,1.5,NE,12.7,-,0.00,Snow,Light Snow,40,2013-12-21 21:41:00
3:53 PM,25.0,19.0,78,29.73,1.0,NNE,12.7,-,0.00,Snow,Light Snow,30,2013-12-21 21:53:00
4:20 PM,24.1,19.9,84,29.70,0.8,NNE,9.2,-,0.00,Snow,Light Snow,30,2013-12-21 22:20:00
4:32 PM,24.1,19.9,84,29.69,0.5,NNE,12.7,-,0.00,Snow,Snow,20,2013-12-21 22:32:00
4:46 PM,24.1,21.0,88,29.68,0.2,NNE,10.4,-,0.00,Snow,Heavy Snow,20,2013-12-21 22:46:00
4:53 PM,24.1,21.0,88,29.73,0.2,North,11.5,-,0.00,Fog-Snow,Snow,10,2013-12-21 22:53:00
5:05 PM,24.1,21.0,88,29.68,0.8,North,13.8,-,0.00,Snow,Light Snow,10,2013-12-21 23:05:00
5:53 PM,24.1,21.0,88,29.74,0.8,North,13.8,-,0.00,Snow,Light Snow,10,2013-12-21 23:53:00
6:26 PM,24.1,21.0,88,29.69,0.2,North,15.0,-,0.00,Fog-Snow,Heavy Snow,10,2013-12-22 00:26:00
6:39 PM,24.1,21.0,88,29.70,0.2,North,13.8,-,0.00,Fog-Snow,Heavy Snow,10,2013-12-22 00:39:00
6:53 PM,24.1,21.0,88,29.78,0.2,North,11.5,-,0.00,Fog-Snow,Heavy Snow,10,2013-12-22 00:53:00
7:53 PM,24.1,21.0,88,29.80,0.2,NNE,11.5,-,0.00,Fog-Snow,Heavy Snow,20,2013-12-22 01:53:00
8:42 PM,24.1,21.0,88,29.76,0.5,NNW,12.7,-,0.00,Fog-Snow,Snow,340,2013-12-22 02:42:00
8:50 PM,24.8,21.2,86,29.76,0.5,North,13.8,-,0.00,Fog-Snow,Snow,350,2013-12-22 02:50:00
8:53 PM,24.1,21.0,88,29.81,0.5,North,15.0,-,0.00,Fog-Snow,Snow,350,2013-12-22 02:53:00
9:53 PM,24.1,21.0,88,29.82,0.5,North,13.8,-,0.00,Fog-Snow,Snow,350,2013-12-22 03:53:00
10:53 PM,24.1,19.9,84,29.84,0.8,North,18.4,-,0.00,Snow,Light Snow,350,2013-12-22 04:53:00
11:53 PM,23.0,19.9,88,29.89,0.8,NNW,15.0,-,0.00,Snow,Light Snow,340,2013-12-22 05:53:00